Regional Weather Roundup
Issued by NWS Midland/Odessa, TX

Skip options and go directly to product.
Home | Oldest Version | Previous Version | Current Version | All | Text Only | Save Text | Print | Product List | Glossary On

Skip product version selection by date and time.   
859
ASUS44 KMAF 280601
RWRMAF
MIDLAND AREA WEATHER ROUNDUP
NATIONAL WEATHER SERVICE MIDLAND TX
100 AM CDT THU MAY 28 2015

...IN SOUTHWEST TEXAS AND SOUTHEAST NEW MEXICO...

CITY           SKY/WX    TMP DP  RH WIND       PRES   REMARKS
ALPINE         MOCLDY    69  62  78 SE7       30.12F
ANDREWS        FAIR      72  65  78 S14G23    29.98F
ARTESIA        CLEAR     72  61  68 S16       30.01F
BIG SPRING     MOCLDY    77  64  63 SE16      30.01S
CARLSBAD       PTCLDY    73  64  73 S10       29.99S
DRYDEN           N/A     78  66  66 SE8       29.97F
FORT STOCKTON  CLEAR     73  64  73 SE18G29   30.00F
GUAD PASS      CLEAR     64  56  75 NE29      30.11F
HOBBS          CLEAR     64  59  82 CALM      30.02F
MARFA          CLEAR     66  61  82 NE3       30.11R
MIDLAND AIRPK  PTCLDY    76  64  67 S16G26    29.99F
MIDLAND INTL   PTCLDY    74  64  71 S14       29.97F
ODESSA         PTCLDY    74  63  68 S16       29.98F
PECOS          CLEAR     73  65  77 SE13G20   29.97R
PRESIDIO       FAIR      80  59  49 NE15      29.92R
SEMINOLE       CLEAR     69  59  70 CALM      30.02S
SNYDER         CLOUDY    72  64  75 SE15      30.02S
WINK           CLEAR     74  65  73 SE12      29.96S
$$
...OTHER STATIONS IN TEXAS...

CITY           SKY/WX    TMP DP  RH WIND       PRES   REMARKS
ABILENE        CLOUDY    74  70  87 SE17      30.05S
AMARILLO       CLOUDY    63  55  75 SE17      30.02F
AUSTIN         CLOUDY    75  72  90 SE9       30.05F
BROWNSVILLE    CLOUDY    81  78  91 SE14      30.00S
CORPUS CHRISTI MOCLDY    81  76  84 SE12      30.00S
DALLAS FTW     MOCLDY    72  70  93 E7        30.03S
DEL RIO        MOCLDY    78  72  81 SE9       29.97S
EL PASO        MOCLDY    77  41  27 E9        29.99R
HOUSTON INT    PTCLDY    73  71  93 E3        30.06F
LUBBOCK        CLOUDY    70  65  84 N12       30.04R
SAN ANGELO     CLOUDY    73  67  81 SE6       30.03F
SAN ANTONIO    CLOUDY    77  72  84 SE12      30.06R
WACO           CLOUDY    76  71  85 S14       30.03F
WICHITA FALLS  NOT AVBL
$$
...OTHER LOCATIONS IN NEW MEXICO...

CITY           SKY/WX    TMP DP  RH WIND       PRES   REMARKS
ALAMAGORDO     CLOUDY    68  25  19 SE3       30.00S
ALBUQUERQUE    PTCLDY    65  31  28 SE9       30.06R
CANNON AFB     PTCLDY    66  55  69 SE9       30.07R
CLOVIS         MOCLDY    64  54  68 SE15        N/A
HOLLOMAN AFB   MOCLDY    69  27  21 E6        29.98R
ROSWELL        CLEAR     67  55  65 S8        30.01R
RUIDOSO        PTCLDY    57  32  38 S9        30.22S
SANTA FE       PTCLDY    53  34  48 CALM      30.13R
TRUTH OR CONSE PTCLDY    64  14  14 SW5       30.03S
TUCUMCARI      PTCLDY    64  51  62 CALM      30.02R
$$

USA.gov is the U.S. government's official web portal to all federal, state and local government web resources and services.